Tracking 30995 objects as of 5-Jul-2025
HD Live streaming from Space Station
objects crossing your sky now

STARLINK-4303

Track STARLINK-4303 now!
10-day predictions
STARLINK-4303 is classified as:


NORAD ID: 53544
Int'l Code: 2022-101T
Perigee: 545.9 km
Apogee: 547.9 km
Inclination: 53.2 °
Period: 95.4 minutes
Semi major axis: 6917 km
RCS: Unknown
Launch date: August 19, 2022
Source: United States (US)
Launch site: AIR FORCE EASTERN TEST RANGE (AFETR)
Your satellite tracking list
Your tracking list is empty




NASA's NSSDC Master Catalog

Two Line Element Set (TLE):
1 53544U 22101T   25186.14931311  .00000616  00000-0  56814-4 0  9993
2 53544  53.2173  95.3710 0001451  87.3133 272.8025 15.08845473159607
Source of the keplerian elements: AFSPC